Location: Peterborough
(44.3091°N, 78.3197°W)
Time: 16:17:40
(UTC-04:00)

Transit 2A - Pass Details

Date: 29 March 2023
Orbit: 591 x 964 km, 66.7° (Epoch: 04 June)

Event Time Altitude Azimuth Distance (km) Brightness Sun altitude
Rises 05:08:15 0° 204° (SSW) 3,187 - -20.1°
Reaches altitude 10° 05:10:31 10° 202° (SSW) 2,322 - -19.7°
Exits shadow 05:12:31 24° 199° (SSW) 1,597 7.3 -19.4°
Maximum altitude 05:15:52 74° 119° (ESE) 877 6.3 -18.8°
Drops below altitude 10° 05:21:50 10° 35° (NE) 2,581 9.6 -17.8°
Sets 05:24:28 0° 34° (NE) 3,570 10.4 -17.4°
